Temperature
16 16 16 16 16 16 16 17 17 17 18 18 17 17 17 17 17 17 17 17 17 17 16 16 16 16 16 16 16 16 16 16 16 16 16 16 15 15
16 16 16 16 16 16 16 16 16 16 17 17 17 17 16 16 16 16 16 16 16 17 16 16 16 16 16 16 16 16 16 16 16 16 15 15 15 15
16 16 16 16 16 16 16 16 16 16 16 16 16 16 16 16 16 16 16 16 16 16 16 16 16 16 16 16 16 15 15 15 15 15 15 15 15 15
15 15 15 16 16 16 16 15 16 15 15 15 16 16 15 15 15 15 15 15 15 15 16 16 15 15 15 15 15 15 15 15 15 15 15 15 15 15
15 15 15 15 15 15 15 15 15 15 15 15 15 15 15 15 15 15 15 15 15 15 15 15 15 15 15 15 15 15 15 15 15 15 15 15 15 14
15 15 15 15 15 15 15 15 15 15 14 15 15 15 15 15 14 14 14 15 14 15 14 15 15 15 15 15 15 15 15 15 15 14 14 14 14 14
15 15 15 15 15 15 14 14 14 14 14 14 15 15 15 14 14 14 14 14 14 14 14 14 14 14 14 14 14 14 14 14 14 14 14 14 14 14
14 14 14 14 14 14 14 14 14 14 14 14 14 14 14 14 14 14 14 14 14 14 13 14 14 14 14 14 14 14 14 14 14 14 14 14 14 14
14 14 14 14 14 14 14 14 14 14 14 14 13 13 13 13 13 13 13 13 13 13 13 13 13 13 13 13 14 14 14 14 14 14 14 14 14 14
14 14 14 14 14 14 14 14 14 13 13 13 13 13 13 13 13 13 13 13 13 13 13 13 13 13 13 13 13 13 13 13 13 13 13 13 13 13
14 14 14 13 14 14 13 13 13 13 13 13 13 13 13 13 13 12 12 12 13 13 13 12 13 13 13 13 13 13 13 13 13 13 13 13 13 13
14 14 14 14 13 13 13 13 13 13 13 13 13 13 13 12 12 12 12 12 13 13 12 12 12 12 13 13 13 13 12 12 12 12 12 12 12 12
14 13 13 13 13 13 13 13 12 12 12 12 12 12 12 12 12 12 12 12 12 12 12 12 12 12 12 12 12 12 12 12 12 12 12 12 12 12
13 13 13 13 13 13 13 13 13 12 12 12 12 12 12 12 12 11 12 12 11 11 11 11 11 11 11 12 12 12 12 12 12 12 11 11 11 11
13 13 13 13 13 12 12 12 12 12 12 12 11 11 11 11 11 11 11 11 11 11 11 11 11 11 11 11 11 12 11 11 11 11 11 11 11 11
12 12 12 12 12 12 12 12 11 11 11 11 11 11 11 11 11 11 11 11 11 11 11 11 11 11 10 11 11 11 11 11 11 11 11 11 11 11
12 12 12 12 12 12 11 11 11 11 11 11 11 11 10 10 10 11 10 11 11 11 11 10 10 10 10 10 11 11 11 11 11 11 10 10 11 10
12 12 11 11 11 11 11 11 10 10 10 10 10 10 10 10 10 10 10 10 10 10 11 11 10 10 10 10 10 10 11 11 10 10 10 10 10 10
11 11 11 11 11 11 11 11 10 10 10 10 10 10 10 10 10 10 10 10 10 10 10 10 10 10 10 11 10 10 10 10 10 10 10 10 10 10
11 11 11 11 11 11 10 10 10 10 10 10 10 10 10 10 10 10 10 9 10 10 10 10 10 10 10 10 10 10 10 9 9 9 10 10 10 9
11 10 10 10 10 10 10 10 9 9 9 9 9 9 9 9 9 9 9 9 9 9 9 9 9 9 9 9 10 10 9 9 9 9 9 9 9 9
10 10 10 10 10 10 9 9 9 9 9 9 9 9 9 9 9 9 9 9 9 9 9 9 9 9 9 9 9 9 9 9 9 9 9 9 8 8
10 10 10 10 9 9 9 9 9 9 9 9 9 8 9 8 8 9 9 9 9 9 9 9 9 9 9 9 9 9 9 9 9 9 8 8 8 8
Wind_Speed
4 4 4 4 4 4 5 5 6 7 6 4 4 4 5 5 4 6 6 6 8 9 9 9 9 9 10 10 10 10 10 10 10 11 12 12 12 12
4 4 5 5 4 5 5 5 6 7 7 5 5 5 4 5 4 5 6 6 9 10 10 9 9 9 9 9 9 9 10 10 10 10 11 12 12 12
5 5 6 5 5 5 5 5 6 6 7 7 5 5 5 6 4 5 6 6 6 9 10 9 9 9 9 9 9 9 9 10 10 9 9 10 11 11
5 5 6 5 6 6 5 6 6 6 7 8 6 5 5 5 5 6 6 5 5 6 9 10 10 10 9 9 9 8 9 9 9 9 9 9 10 10
6 6 6 6 6 5 6 6 6 6 6 7 7 5 5 5 5 6 6 5 6 5 8 10 10 10 10 10 10 9 9 9 9 9 9 9 10 10
6 6 6 6 7 6 7 7 7 7 6 7 6 6 5 4 5 5 5 4 5 5 4 6 8 10 11 11 11 10 10 9 9 9 9 10 10 10
6 7 7 6 6 6 7 6 7 7 6 6 7 6 6 4 5 5 6 5 5 5 5 5 6 6 8 11 11 10 10 10 10 10 10 10 10 11
6 6 7 7 6 7 8 8 8 8 8 7 7 7 7 7 6 6 6 6 6 4 5 5 5 5 5 6 7 10 10 10 10 11 11 11 11 11
5 6 7 5 6 7 7 9 9 9 9 9 8 8 8 7 7 8 7 7 7 5 5 6 5 5 5 4 6 8 10 10 10 11 11 11 11 12
6 6 7 6 6 6 8 8 8 7 8 8 7 8 7 7 7 8 8 8 8 6 6 7 6 6 5 4 8 9 10 10 10 11 11 11 11 12
6 6 6 6 4 5 7 8 7 7 6 6 7 7 7 8 8 7 7 7 7 6 5 6 6 6 6 6 6 10 11 11 10 10 10 10 10 11
5 5 4 5 4 4 6 7 7 7 6 6 6 7 8 8 9 9 8 7 6 5 4 5 6 5 5 5 4 5 8 11 12 11 10 9 8 7
6 5 3 2 4 5 7 7 6 7 7 7 6 5 5 5 5 6 6 7 7 6 4 4 5 5 6 5 5 4 5 4 6 8 10 11 10 7
6 5 3 2 4 6 6 5 6 7 6 5 5 4 4 4 4 4 5 5 6 7 6 6 6 6 6 6 5 5 5 5 5 5 5 8 10 11
4 3 3 3 4 4 4 4 5 4 4 4 4 4 4 4 4 4 4 5 6 7 6 7 7 6 7 7 6 6 5 5 4 4 4 4 4 4
3 2 3 4 4 3 3 3 3 3 4 4 4 4 4 4 4 4 4 4 5 5 5 6 6 6 7 7 7 6 5 4 3 3 3 4 3 4
3 3 3 3 3 2 2 2 3 3 4 4 4 4 4 5 4 4 4 5 5 5 4 4 4 5 6 6 6 6 5 4 3 2 3 4 3 2
3 3 3 3 3 3 3 3 3 4 4 4 4 4 4 4 4 4 4 5 5 5 5 4 3 3 4 4 4 6 5 4 3 3 3 4 3 2
4 4 3 3 4 4 4 4 4 4 4 4 4 4 4 4 4 4 4 4 4 5 4 4 4 4 5 5 3 3 4 4 3 3 3 3 3 2
4 4 4 4 4 4 4 4 5 4 3 3 3 4 4 4 4 4 4 5 5 4 4 3 3 4 5 5 4 2 3 3 3 3 3 2 2 1
4 4 4 4 4 4 4 4 4 4 3 3 3 4 4 4 4 5 4 3 5 4 4 4 3 4 4 3 3 2 1 2 1 2 3 3 3 3
4 4 4 4 4 4 3 3 4 3 3 4 3 3 4 4 4 5 4 4 4 4 4 3 2 3 3 3 3 2 2 0 3 4 1 3 3 3
3 3 3 3 3 3 3 3 4 3 3 3 3 3 4 4 4 4 4 4 3 3 3 3 2 2 2 2 2 2 2 2 1 1 1 4 5 5
Wind_Direction
250 242 251 258 257 261 261 264 267 278 279 268 265 262 260 259 243 246 249 216 216 224 227 231 234 236 239 241 241 240 237 236 236 235 234 235 236 240
263 264 262 265 264 257 259 264 262 264 274 277 275 281 281 269 232 251 252 220 214 218 221 223 227 230 232 234 235 235 236 236 237 237 237 235 235 236
261 259 260 268 271 265 259 261 261 262 267 277 277 276 271 272 267 264 260 254 232 207 214 220 224 227 227 229 230 231 232 234 233 234 236 236 236 238
261 264 267 264 262 265 265 262 262 259 262 275 281 276 269 267 266 266 265 261 263 208 208 217 221 223 225 227 227 225 228 233 234 234 234 236 236 237
263 263 267 267 265 267 264 264 266 264 264 268 274 275 272 268 270 267 269 270 266 230 210 215 217 220 223 223 222 222 225 229 232 234 235 236 237 236
262 265 267 264 263 264 259 257 262 266 262 263 269 269 266 261 262 269 270 259 263 262 255 242 223 218 220 217 216 219 223 227 230 233 237 238 238 238
265 267 266 265 271 272 274 274 271 267 266 265 267 272 272 271 268 268 270 268 257 257 256 249 237 236 223 216 214 219 223 227 230 233 236 238 238 239
268 271 269 257 255 254 263 271 272 266 270 269 267 269 272 272 270 267 267 267 269 250 256 260 256 258 247 239 202 203 217 227 232 234 235 236 238 238
270 273 274 271 260 264 257 250 253 252 256 262 270 273 274 272 271 265 262 264 269 270 268 268 260 261 256 238 183 198 213 224 232 235 235 236 238 239
266 268 271 279 275 280 275 269 266 260 254 255 266 271 274 277 268 266 266 257 259 254 249 264 260 257 254 238 189 202 215 223 231 236 236 235 237 237
268 268 272 274 291 294 276 272 270 267 252 249 260 260 264 261 262 262 260 257 262 260 244 259 267 270 261 247 216 203 214 221 229 233 235 235 238 237
269 259 255 278 291 277 271 271 272 278 283 275 257 245 246 238 233 245 254 259 263 265 247 253 263 265 266 254 251 225 222 218 220 225 226 224 228 239
276 275 278 249 270 266 269 272 279 286 277 271 268 264 261 255 250 246 255 261 262 262 258 254 265 266 268 270 264 261 256 247 227 223 214 212 213 225
279 286 298 269 259 258 265 277 272 273 273 275 276 276 273 270 268 270 270 271 272 270 267 266 266 268 270 272 271 266 259 252 248 247 230 196 206 214
283 311 312 270 255 244 224 244 257 270 277 274 280 283 286 286 279 263 257 258 258 256 251 250 256 261 263 268 271 271 267 262 257 255 248 235 225 217
278 275 244 242 253 273 257 246 267 283 278 278 282 284 287 283 273 272 268 263 263 260 246 242 248 256 261 265 268 269 269 264 262 254 252 252 239 232
292 277 281 281 277 281 284 285 284 279 273 278 280 283 281 277 276 277 277 272 268 271 267 249 238 240 254 266 266 266 267 267 264 268 261 262 257 246
270 272 280 282 284 286 284 283 277 278 278 276 273 274 276 278 281 281 277 271 271 273 276 272 259 256 256 245 251 266 267 268 268 253 255 263 272 285
248 263 273 280 281 278 278 280 279 276 274 273 275 276 277 276 276 277 280 281 281 280 280 278 267 259 264 271 238 218 262 271 269 265 261 268 275 290
260 270 274 275 278 281 280 280 278 273 263 267 270 270 269 270 274 277 277 281 280 281 282 279 277 273 268 278 289 275 226 263 271 278 289 289 283 223
266 274 280 281 281 279 278 277 277 277 275 271 270 272 271 271 275 276 274 272 275 283 283 285 292 274 273 266 261 276 287 166 203 275 283 280 286 275
271 277 283 287 288 285 280 278 276 278 277 271 277 278 276 275 270 269 274 272 268 275 286 291 280 271 266 255 258 271 282 177 155 164 240 280 285 288
273 279 285 290 295 295 294 289 287 291 290 288 295 294 290 286 282 277 270 269 272 272 270 281 281 270 270 256 254 265 270 244 232 203 199 172 180 188
Height
1527 1527 1527 1527 1528 1528 1528 1527 1527 1525 1524 1524 1523 1523 1522 1521 1520 1519 1518 1518 1517 1517 1517 1517 1517 1517 1517 1518 1518 1518 1518 1518 1519 1519 1519 1519 1519 1519
1524 1524 1524 1524 1524 1524 1524 1524 1523 1523 1521 1520 1520 1520 1518 1518 1517 1516 1515 1514 1513 1513 1513 1513 1513 1513 1513 1513 1513 1513 1514 1514 1514 1514 1514 1514 1514 1514
1521 1521 1520 1520 1520 1521 1520 1520 1520 1519 1518 1517 1517 1516 1514 1514 1513 1512 1512 1511 1510 1509 1509 1509 1509 1509 1509 1509 1509 1509 1509 1509 1509 1509 1509 1509 1509 1509
1518 1517 1517 1517 1516 1516 1516 1516 1516 1515 1514 1513 1512 1512 1511 1510 1509 1508 1508 1508 1506 1505 1505 1504 1504 1504 1504 1504 1504 1504 1504 1504 1504 1504 1504 1505 1504 1504
1514 1514 1513 1513 1512 1513 1512 1512 1512 1512 1510 1509 1508 1508 1507 1506 1505 1504 1504 1502 1502 1502 1501 1500 1500 1500 1499 1499 1499 1499 1499 1499 1499 1499 1499 1499 1499 1499
1510 1510 1510 1509 1508 1508 1508 1507 1507 1507 1506 1505 1505 1504 1503 1502 1501 1501 1500 1499 1498 1498 1497 1497 1496 1495 1495 1494 1494 1494 1494 1494 1494 1494 1494 1494 1494 1494
1506 1506 1506 1505 1504 1504 1504 1504 1503 1502 1502 1501 1501 1500 1499 1498 1498 1497 1496 1495 1494 1494 1493 1493 1492 1491 1490 1490 1489 1489 1489 1489 1489 1489 1489 1489 1489 1489
1503 1502 1502 1502 1501 1500 1499 1499 1499 1498 1498 1497 1496 1495 1495 1494 1493 1493 1492 1491 1490 1490 1489 1489 1488 1487 1487 1486 1485 1485 1484 1484 1484 1484 1484 1484 1484 1484
1499 1499 1499 1499 1497 1496 1495 1495 1494 1493 1493 1492 1491 1490 1490 1490 1489 1488 1487 1486 1486 1485 1485 1484 1484 1483 1482 1481 1480 1480 1479 1479 1479 1479 1479 1479 1479 1479
1496 1495 1495 1494 1493 1492 1491 1490 1489 1488 1487 1487 1486 1485 1485 1484 1484 1484 1482 1481 1480 1480 1480 1480 1479 1479 1478 1477 1476 1475 1475 1474 1474 1474 1474 1474 1474 1474
1492 1492 1491 1490 1489 1488 1487 1486 1485 1484 1483 1482 1481 1480 1479 1479 1479 1479 1478 1478 1477 1477 1476 1476 1475 1474 1474 1473 1472 1471 1470 1470 1469 1469 1469 1469 1470 1470
1489 1488 1487 1486 1484 1483 1483 1482 1480 1480 1479 1478 1476 1475 1475 1474 1474 1474 1474 1474 1473 1473 1472 1472 1472 1471 1470 1469 1468 1467 1466 1466 1465 1465 1465 1465 1465 1465
1485 1484 1483 1481 1480 1479 1478 1478 1477 1476 1475 1474 1473 1472 1471 1471 1470 1470 1469 1469 1469 1468 1468 1468 1468 1467 1467 1465 1464 1464 1463 1462 1462 1461 1461 1461 1461 1461
1481 1480 1479 1477 1476 1475 1474 1473 1473 1472 1471 1471 1469 1468 1468 1467 1466 1466 1465 1464 1464 1464 1463 1463 1463 1463 1462 1461 1460 1460 1460 1459 1459 1458 1458 1457 1457 1457
1477 1475 1474 1473 1472 1471 1470 1469 1469 1469 1468 1467 1466 1465 1464 1463 1463 1462 1461 1460 1459 1459 1459 1458 1458 1458 1458 1457 1457 1456 1456 1456 1455 1455 1454 1454 1454 1453
1473 1471 1470 1469 1469 1468 1467 1466 1466 1465 1464 1464 1463 1462 1461 1460 1459 1459 1458 1457 1456 1455 1455 1454 1453 1454 1454 1453 1453 1452 1452 1452 1452 1451 1450 1450 1450 1450
1469 1468 1468 1467 1466 1465 1465 1464 1463 1462 1461 1460 1459 1459 1458 1457 1457 1456 1455 1454 1453 1452 1451 1450 1450 1449 1449 1449 1449 1449 1449 1449 1448 1448 1447 1447 1447 1446
1466 1466 1465 1464 1464 1463 1462 1461 1460 1459 1458 1457 1456 1455 1455 1454 1453 1452 1452 1451 1450 1449 1448 1447 1447 1446 1446 1445 1445 1445 1446 1445 1445 1444 1444 1444 1443 1443
1464 1463 1462 1461 1461 1460 1459 1458 1458 1456 1455 1454 1453 1452 1452 1451 1450 1449 1448 1448 1447 1446 1445 1445 1444 1443 1443 1442 1442 1442 1442 1442 1442 1441 1441 1441 1441 1440
1461 1460 1459 1459 1458 1457 1456 1455 1455 1454 1452 1451 1450 1449 1449 1448 1447 1446 1445 1445 1444 1443 1442 1442 1441 1440 1440 1440 1440 1439 1438 1438 1439 1438 1438 1438 1438 1438
1459 1458 1457 1456 1455 1454 1453 1452 1452 1451 1449 1449 1448 1447 1446 1445 1444 1444 1443 1442 1441 1440 1440 1439 1438 1438 1437 1437 1437 1437 1436 1436 1436 1436 1436 1436 1436 1435
1456 1455 1454 1453 1451 1451 1450 1449 1449 1448 1447 1446 1445 1444 1444 1443 1442 1441 1440 1439 1439 1438 1437 1437 1436 1436 1435 1435 1434 1434 1434 1434 1434 1433 1433 1434 1433 1433
1453 1452 1451 1450 1449 1448 1447 1446 1446 1445 1444 1444 1443 1442 1441 1440 1439 1439 1438 1437 1437 1436 1435 1435 1434 1433 1433 1432 1432 1432 1432 1432 1432 1432 1432 1431 1431 1431